VYNT

Nay Pyi Taw International Airport

Airport
ICAO code
VYNT
IATA Code
NYT
Summary
ICAO Region
APAC
ICAO Territory
Location

Pyinmana, Naypyidaw Union Territory

Serving
Nay Pyi Taw
Elevation
109 ft
Coordinates
19° 36' 54" N , 96° 12' 47" E
KCC
Metar
VYNT 170800Z 15008KT 7000 BKN018 FEW023CB BKN110 32/25 Q1005

Nay Pyi Taw International Airport, previously known as Ela Airport, is located 16 km southeast of Nay Pyi Taw, the capital of Myanmar.

Climatology

Tropical Savanna climate (Köppen climate classification Aw)

Airport map

Aerial View

SKYbrary Partners:

Safety knowledge contributed by: